Fort Campbell, KY

11:57 PM CST on February 20, 2018 (GMT -0600)
Campbell Army Air Field

Weather History for KHOP - May, 2014

Change the Weather History Date:

Friday, May 16, 2014

  Actual Average Record
Temperature  
Mean Temperature 54 °F -  
Max Temperature 62 °F 76 °F 87 °F (1998)
Min Temperature 46 °F 56 °F 39 °F (1997)
Degree Days  
Heating Degree Days 12    
Growing Degree Days 4 (Base 50)    
Moisture  
Dew Point 42 °F    
Average Humidity 68    
Maximum Humidity 100    
Minimum Humidity 40    
Precipitation  
Precipitation 0.00 in - - ()
Sea Level Pressure  
Sea Level Pressure 30.08 in    
Wind  
Wind Speed 9 mph (WNW)    
Max Wind Speed 18 mph    
Max Gust Speed 30 mph    
Visibility 10 miles    
Events      
Averages and records for this station are not official NWS values.
T = Trace of Precipitation, MM = Missing Value Source: NWS Daily Summary

Daily Weather History Graph

Daily Weather History Graph

Search for Another Location

Airport or City:

Trip Planner

Search our weather history database for the weather conditions in past years. The results will help you decide how hot, cold, wet, or windy it might be!

Date:

Astronomy

May. 16, 2014 Rise Set
Actual Time 5:41 AM CDT 7:51 PM CDT
Civil Twilight 5:12 AM CDT 8:20 PM CDT
Nautical Twilight 4:37 AM CDT 8:55 PM CDT
Astronomical Twilight 3:59 AM CDT 9:34 PM CDT
Moon 9:57 PM CDT (5/16) 7:23 AM CDT (5/16)
Length of Visible Light 15h 07m
Length of Day
14h 09m
Waning Gibbous, 95% of the Moon is Illuminated
May 16
Waning Gibbous
May 21
Last Quarter
May 28
New
Jun 5
First Quarter
Jun 12
Full

Hourly Weather History & Observations

Time (CDT) Temp. Windchill Dew Point Humidity Pressure Visibility Wind Dir Wind Speed Gust Speed Precip Events Conditions
12:58 AM 46.2 °F 42.7 °F 46.2 °F 100% 30.10 in 10.0 mi WSW 6.9 mph - N/A   Clear
1:58 AM 48.2 °F - 48.2 °F 100% 30.07 in 10.0 mi SW 4.6 mph - N/A   Overcast
2:58 AM 48.0 °F - 48.0 °F 100% 30.05 in 10.0 mi WSW 4.6 mph - N/A   Scattered Clouds
3:58 AM 47.8 °F - 47.8 °F 100% 30.05 in 10.0 mi SSW 5.8 mph - N/A   Overcast
4:58 AM 48.0 °F - 48.0 °F 100% 30.05 in 10.0 mi SW 5.8 mph - N/A   Overcast
5:58 AM 47.3 °F - 47.3 °F 100% 30.05 in 10.0 mi WSW 6.9 mph - N/A   Scattered Clouds
6:58 AM 48.4 °F - 48.4 °F 100% 30.07 in 10.0 mi West 8.1 mph - N/A   Partly Cloudy
7:58 AM 51.6 °F - 51.3 °F 99% 30.08 in 10.0 mi West 8.1 mph - N/A   Clear
8:58 AM 54.1 °F - 48.7 °F 82% 30.09 in 10.0 mi WNW 11.5 mph - N/A   Clear
9:58 AM 56.3 °F - 41.9 °F 59% 30.10 in 10.0 mi West 12.7 mph - N/A   Partly Cloudy
10:58 AM 57.9 °F - 37.6 °F 47% 30.10 in 10.0 mi WNW 16.1 mph 23.0 mph N/A   Partly Cloudy
11:58 AM 57.2 °F - 37.8 °F 48% 30.09 in 10.0 mi WNW 13.8 mph - N/A   Mostly Cloudy
12:58 PM 59.7 °F - 36.7 °F 42% 30.08 in 10.0 mi West 16.1 mph 24.2 mph N/A   Mostly Cloudy
1:58 PM 60.8 °F - 37.4 °F 42% 30.07 in 10.0 mi West 17.3 mph 25.3 mph N/A   Scattered Clouds
2:31 PM 59.0 °F - 35.6 °F 42% 30.06 in 10.0 mi West 16.1 mph 26.5 mph N/A   Light Drizzle
2:40 PM 59.0 °F - 37.4 °F 45% 30.06 in 10.0 mi WNW 15.0 mph 20.7 mph N/A   Scattered Clouds
3:03 PM 60.8 °F - 37.4 °F 42% 30.06 in 10.0 mi WNW 16.1 mph 21.9 mph N/A   Scattered Clouds
3:58 PM 61.7 °F - 36.9 °F 40% 30.06 in 10.0 mi WNW 18.4 mph 29.9 mph N/A   Clear
4:58 PM 59.9 °F - 36.3 °F 41% 30.07 in 10.0 mi West 17.3 mph 23.0 mph N/A   Partly Cloudy
5:58 PM 61.0 °F - 36.5 °F 40% 30.08 in 10.0 mi WNW 10.4 mph - N/A   Clear
6:58 PM 59.2 °F - 37.9 °F 45% 30.08 in 10.0 mi WNW 9.2 mph - N/A   Clear
7:58 PM 55.0 °F - 38.3 °F 53% 30.10 in 10.0 mi NNW 3.5 mph - N/A   Clear
8:58 PM 52.9 °F - 41.5 °F 65% 30.10 in 10.0 mi NNE 2.3 mph - N/A   Clear
9:58 PM 51.8 °F - 43.9 °F 74% 30.11 in 10.0 mi ESE 2.3 mph - N/A   Clear
10:58 PM 48.9 °F - 47.1 °F 93% 30.12 in 10.0 mi NNE 3.5 mph - N/A   Mostly Cloudy
11:58 PM 50.0 °F - 43.2 °F 77% 30.12 in 10.0 mi North 1.2 mph - N/A   Mostly Cloudy